Погода в Тарнобжеге

Польша     50°34′04″N   21°41′35″E
темп.,
°C
ветер,
м/с
пор.,
м/с
влажн.,
%
обл.,
%
осадки,
мм/ч
давл.,
гПа
погр.,
м
27 февраля, сб
сб2701:00+4зсз4118689 0.1 1027534
04:00+4зсз498795 0.0 1026512
07:00+4зсз5108694 0.1 1027663
10:00+5сз6977100 0.0 10281038
13:00+6сз7974100 0.1 10301031
16:00+5сз6107499 0.1 10301046
19:00+4сз41176100 0.3 1032734
22:00+2сз4118364 0.0 1033415
28 февраля, вс
вс2801:000сз398832 0.0 1034311
04:000зсз36914 0.0 1034189
07:00+1з488943 0.0 1034325
10:00+4зсз576274 0.0 1033669
13:00+7з685739 0.0 1032949
16:00+6зсз610734 0.0 1030816
19:00+5зсз4118327 0.0 1031649
22:00+2сз398976 0.0 1031488
1 марта, пн
пн101:00+3ссз398986 0.0 1032564
04:00+2с3793100 0.0 1032326
07:00+2ссз259594 0.0 1034225
10:00+3ссз238693 0.0 1034362
13:00+5сз238096 0.0 1035472
16:00+6юз1279100 0.0 1034276
19:00+4юз238792 0.0 103540
22:00+3з339047 0.0 103562
2 марта, вт
вт201:00+2зюз369224 0.0 1035123
04:00+1зюз37930 0.0 1034153
07:00+1зюз48910 0.0 1034196
10:00+7з47726 0.0 1033515
13:00+10зсз465811 0.0 1033836
16:00+10зсз36620 0.0 1032485
19:00+6зсз34770 0.0 103261
22:00+4з23820 0.0 103325
3 марта, ср
ср301:00+3зюз23860 0.0 103335
04:00+2зюз33880 0.0 103254
07:00+2зюз34890 0.0 103280
10:00+7з24680 0.0 1031339
13:00+11з23510 0.0 1030706
16:00+11юз23540 0.0 1028106
19:00+7юз23681 0.0 102722
22:00+5ююз237369 0.0 102722